Simultaneous Nadir Overpasses (SNOs) Predictions

Prediction of SNOs between LANDSAT-8 and NOAA-19 Satellite Orbit:

Table of predicted SNOs for the next 14.0 days since TLE Epoch: 3/12/2016
Index Date (LANDSAT-8) Time (LANDSAT-8) Lat,Lon (LANDSAT-8) SZA (LANDSAT-8 ) Date (NOAA-19) Time (NOAA-19) Lat,Lon (NOAA-19) SZA (NOAA-19 ) Distance(km) Time Diff (sec)
1 03/14/2016 08:48:08 74.37, 51.79 76.58 03/14/2016 08:47:37 74.38, 51.68 76.60 3.49 31
2 03/14/2016 09:37:37 -74.29,-140.75 103.51 03/14/2016 09:38:31 -74.28,-140.78 103.52 1.75 54
3 03/16/2016 14:21:52 -74.37, 148.35 104.30 03/16/2016 14:21:39 -74.33, 148.34 104.33 3.72 13
4 03/16/2016 15:11:27 73.87, -45.14 75.19 03/16/2016 15:12:35 73.87, -43.21 75.20 59.64 68
5 03/18/2016 19:06:04 -74.58, 77.81 104.94 03/18/2016 19:04:52 -74.63, 76.80 104.91 30.31 72
6 03/18/2016 19:55:34 74.35,-115.12 74.80 03/18/2016 19:55:51 74.34,-115.17 74.80 1.94 17
7 03/21/2016 00:39:49 74.40, 173.94 73.99 03/21/2016 00:38:58 74.38, 173.99 73.97 2.81 51
8 03/21/2016 01:29:18 -74.33, -18.58 106.09 03/21/2016 01:29:55 -74.35, -18.68 106.08 3.43 37
9 03/23/2016 06:13:33 -74.38, -89.54 106.91 03/23/2016 06:13:02 -74.37, -89.47 106.92 2.23 31
10 03/23/2016 07:03:00 74.29, 77.90 72.99 03/23/2016 07:04:05 74.33, 77.90 73.03 3.50 65
11 03/25/2016 11:47:14 74.38, 7.04 72.22 03/25/2016 11:47:12 74.38, 7.01 72.22 0.76 2
